SCP
0 0 0 0 0 0 0 0 0 0 0 0 0 0 0 0 0 0 0 0 0 0 0 0 0 -0 0 0 0 0 -0 -0 -0 -0 -0 0 0 0 0 0 0 0 0
0 0 0 0 0 0 0 0 0 0 0 0 0 0 0 0 0 0 0 0 0 0 0 0 0 0 0 0 0 0 -0 -0 -0 -0 -0 0 0 0 0 0 0 0 0
0 0 0 0 0 0 0 0 0 0 0 0 0 0 0 0 0 0 0 0 0 0 0 0 0 0 0 0 0 -0 -0 -0 -0 -0 -0 -0 0 0 0 0 0 0 0
0 0 0 0 0 0 0 0 0 0 0 0 0 0 0 0 0 0 0 0 0 0 0 0 0 0 0 0 0 0 0 -0 -0 0 -0 0 0 0 0 0 0 0 0
0 0 0 0 0 0 0 0 0 0 0 0 0 0 0 0 0 0 0 0 0 0 0 0 0 0 0 0 0 0 -0 -0 -0 -0 -0 -0 0 0 0 0 0 0 0
0 0 0 0 0 0 0 0 0 0 0 0 0 0 0 0 0 0 0 0 0 0 0 0 0 0 0 0 0 0 0 -0 -0 -0 -0 0 0 0 0 0 0 0 0
0 0 0 0 0 0 0 0 0 0 0 0 0 0 0 0 0 0 0 0 0 0 0 0 0 0 -0 -0 -0 0 0 -0 -0 -0 -0 0 0 0 0 0 0 0 0
0 0 0 0 0 0 0 0 0 0 0 0 0 0 0 0 0 0 0 0 0 0 0 0 0 -0 -0 -0 -0 -0 -0 -0 -0 -0 -0 0 0 0 0 0 0 0 0
0 0 0 0 0 0 0 0 0 0 0 0 0 0 0 0 0 0 0 0 0 0 0 0 0 0 0 0 -0 -0 -0 -0 -0 0 -0 0 0 0 0 0 0 0 0
0 0 0 0 0 0 0 0 0 0 0 0 0 0 0 0 0 0 0 0 0 0 0 0 0 0 0 0 -0 -0 -0 -0 -0 0 0 0 0 0 0 0 0 0 0
0 0 0 0 0 0 0 0 0 0 0 0 0 0 0 0 0 0 0 0 0 -0 0 0 0 0 0 0 0 -0 -0 -0 0 0 0 0 0 0 0 0 0 0 0
0 0 0 0 0 0 0 0 0 0 0 0 0 0 0 0 0 0 0 0 0 0 -0 0 0 0 0 0 0 0 -0 -0 0 0 0 0 0 0 0 0 0 0 0
0 0 0 0 0 0 0 0 0 0 0 0 0 0 0 0 0 0 0 0 0 -0 -0 0 0 0 0 0 0 0 -0 -0 0 0 0 0 0 0 0 0 0 0 0
0 0 0 0 0 0 0 0 0 0 0 0 0 0 0 0 -0 0 0 0 0 0 0 0 0 0 0 0 0 0 -0 -0 0 0 0 0 0 0 0 0 0 0 0
0 0 0 0 0 0 0 0 0 0 0 0 0 -0 -0 -0 -0 -0 -0 0 0 -0 -0 0 0 0 0 0 0 0 -0 0 0 0 0 0 0 0 0 0 0 0 0
0 0 0 0 0 0 0 0 0 0 0 0 0 -0 -0 -0 0 -0 -0 -0 -0 -0 0 0 0 0 0 0 0 0 0 0 0 0 0 0 0 0 0 0 0 0 0
0 0 0 0 0 0 0 0 0 0 0 0 0 -0 -0 -0 0 -0 -0 -0 -0 -0 0 0 0 0 0 0 0 0 -0 0 0 0 0 0 0 0 0 0 0 0 0
0 0 0 0 0 0 0 0 0 0 0 0 0 -0 -0 -0 0 0 -0 -0 -0 -0 0 0 0 0 0 0 0 0 0 0 0 0 0 0 0 0 0 0 0 0 0
0 0 0 0 0 0 0 0 0 0 0 0 0 0 0 -0 0 0 -0 -0 -0 0 0 0 0 0 0 0 0 0 0 0 0 0 0 0 0 0 0 0 0 0 0
0 0 0 0 0 0 0 0 0 0 0 0 0 -0 -0 -0 0 0 -0 -0 -0 0 0 0 0 0 0 0 0 0 0 0 0 0 0 0 0 0 0 0 0 0 0
0 0 0 0 0 0 0 0 0 0 0 0 0 -0 0 -0 -0 -0 -0 -0 0 0 0 0 0 0 0 0 0 0 0 0 0 0 0 0 0 0 0 0 0 0 0
0 0 0 0 0 0 0 0 0 0 0 0 0 0 -0 0 0 0 -0 -0 0 0 0 0 0 0 0 0 0 0 0 0 0 0 0 0 0 0 0 0 0 0 0
0 0 0 0 0 0 0 0 0 0 0 0 0 0 0 0 0 0 0 -0 -0 0 0 0 0 0 0 0 0 0 0 0 0 0 0 0 0 0 0 0 0 0 0
0 0 0 0 0 0 0 0 0 0 0 0 0 0 -0 0 0 0 0 -0 -0 -0 0 0 0 0 0 0 0 0 0 0 0 0 0 0 0 0 0 0 0 0 0
0 0 0 0 0 0 0 0 0 0 0 -0 0 0 -0 -0 0 0 0 0 -0 -0 -0 0 0 0 0 0 0 0 0 0 0 0 0 0 0 0 0 0 0 0 0
0 0 0 0 0 0 0 0 0 0 0 -0 -0 -0 -0 -0 -0 0 0 -0 -0 -0 -0 0 0 0 0 0 0 0 0 0 0 0 0 0 0 0 0 0 0 0 0
Wind_Speed_500mb
43 46 51 58 62 66 71 75 79 81 82 86 90 94 99 103 99 94 90 89 82 79 79 76 86 93 90 57 70 76 66 76 83 87 96 117 78 99 115 104 106 102 81
43 47 54 59 64 67 71 77 80 84 83 85 90 97 101 102 94 89 87 79 78 77 76 76 82 73 92 66 66 73 66 78 78 77 78 104 104 125 129 138 130 113 106
43 50 55 58 63 66 71 76 79 83 86 89 91 95 100 98 90 83 78 77 75 77 79 77 76 73 86 72 56 74 68 70 75 80 95 111 87 126 132 126 133 137 140
43 49 53 59 64 68 72 76 79 81 88 92 93 95 94 92 79 72 68 70 71 72 69 75 72 72 83 85 50 56 63 66 88 66 91 93 88 117 127 127 122 147 145
42 46 52 59 64 69 74 76 80 83 87 91 94 94 94 89 81 67 68 70 74 80 81 75 71 69 78 88 77 55 59 65 70 74 85 88 108 125 120 137 134 138 139
41 49 54 59 64 67 72 78 80 83 86 90 94 94 91 82 68 67 66 73 75 78 83 84 79 77 76 77 88 83 67 67 70 69 90 91 96 134 112 133 120 116 110
42 49 56 62 66 69 72 77 80 84 88 91 91 89 88 82 68 65 65 69 74 80 81 83 84 78 77 76 87 83 87 72 76 81 87 88 78 131 135 132 122 130 121
42 49 56 64 67 70 73 75 78 82 87 89 90 87 82 76 65 65 66 66 71 73 84 83 86 85 81 71 74 77 87 92 93 82 82 107 86 141 155 164 157 145 120
42 50 56 63 66 68 71 74 76 83 88 90 87 86 84 78 67 65 65 68 57 74 71 86 77 81 79 68 65 84 90 96 81 83 88 107 109 140 164 147 131 134 113
41 49 56 61 64 66 68 71 72 77 86 89 92 88 91 86 73 67 60 65 71 66 63 80 75 68 67 60 61 69 87 91 90 86 69 84 109 153 157 173 163 145 132
39 45 50 56 59 62 65 66 71 77 83 89 92 89 87 81 80 64 66 65 64 65 69 73 64 53 54 63 67 74 92 88 88 80 63 92 128 147 151 162 179 166 143
36 40 43 47 52 56 60 64 65 73 81 90 89 91 88 87 69 77 63 60 58 66 74 58 53 51 47 49 54 58 77 77 81 73 55 82 119 123 150 153 168 166 167
29 34 39 42 48 51 56 62 66 70 76 85 85 85 96 83 96 76 75 70 68 64 63 56 55 48 53 52 47 48 48 55 65 65 44 82 125 122 131 148 155 163 145
26 30 36 42 44 47 51 58 61 65 72 76 85 85 96 92 94 90 90 89 82 63 52 52 43 45 43 46 41 44 50 54 58 52 45 88 117 117 116 132 127 133 122
24 29 33 39 44 45 44 53 57 53 51 60 69 77 84 96 93 86 85 83 65 61 68 52 43 33 38 44 45 44 50 64 58 52 52 85 111 118 121 135 126 121 117
20 27 32 37 42 47 52 44 43 51 52 47 52 61 73 75 78 78 79 61 54 55 25 14 12 27 33 29 37 49 56 56 55 47 63 97 111 113 114 120 125 125 112
21 26 30 34 38 43 48 55 64 49 54 61 62 64 70 72 73 75 75 56 56 45 48 42 30 23 8 13 30 44 37 43 46 43 70 96 106 112 116 117 115 116 106
19 24 27 31 35 39 45 51 55 63 71 71 68 77 79 78 72 73 75 66 71 72 67 69 55 43 32 24 22 26 28 42 40 51 78 95 102 112 111 113 116 116 101
14 18 21 25 31 36 40 45 51 55 61 68 72 72 87 83 87 87 89 96 94 92 86 85 72 58 45 37 29 25 30 38 40 65 83 97 104 111 114 116 117 115 111
8 12 17 21 26 30 38 43 49 53 57 64 70 75 84 86 97 101 99 98 99 97 96 94 91 73 60 54 40 26 27 37 44 75 88 101 105 110 116 114 114 120 117
4 9 14 19 23 30 36 41 47 51 54 57 62 64 60 76 87 94 96 97 98 100 99 92 93 92 77 69 53 31 19 25 40 68 88 98 103 105 103 104 113 117 117
1 4 10 15 21 26 32 38 42 46 50 53 55 58 61 68 76 83 89 92 94 96 99 102 98 102 92 83 78 53 28 11 23 58 68 83 104 103 108 107 109 110 114
4 5 9 13 19 24 28 34 39 44 47 49 53 56 61 65 68 73 79 85 90 93 97 104 110 109 102 91 88 78 53 25 9 32 58 72 86 97 106 104 104 102 108
8 6 7 11 15 19 24 32 37 41 44 46 49 51 54 58 62 65 69 75 81 87 92 96 101 111 112 100 92 90 71 40 12 10 35 60 71 86 94 97 101 105 106
13 9 7 10 12 17 25 29 33 37 42 45 47 48 49 50 54 58 62 67 73 80 86 92 91 101 112 99 95 93 83 62 32 9 14 33 49 60 72 84 90 94 95
13 11 9 10 12 16 22 26 30 34 38 42 44 46 47 48 49 53 55 61 67 71 76 83 87 89 105 106 93 89 91 83 66 44 23 17 29 41 52 61 67 74 82
Wind_Direction_500mb
300 309 313 314 316 316 318 319 319 319 320 319 317 315 313 310 308 302 294 292 286 283 280 275 262 251 251 269 250 254 257 250 248 260 261 250 278 200 198 194 181 172 175
301 308 311 314 317 321 322 323 323 322 322 321 319 315 312 308 307 301 295 290 284 283 281 274 264 256 250 257 255 253 252 253 254 253 254 253 257 206 199 188 184 198 194
301 307 312 317 320 321 324 323 323 323 323 320 318 316 314 311 307 300 292 290 285 283 281 277 269 256 252 250 255 256 255 252 255 253 253 254 268 198 199 193 187 188 193
298 308 315 318 321 323 322 324 326 326 323 321 319 318 315 312 303 296 288 285 284 284 285 277 270 258 250 246 248 260 258 257 255 257 250 253 256 191 190 174 171 173 172
301 310 314 320 323 324 325 326 325 326 324 322 321 321 320 318 310 301 296 293 292 291 290 287 270 257 259 247 247 248 263 262 257 256 255 251 256 183 179 174 173 171 172
309 316 322 322 324 327 327 326 326 326 325 324 327 327 323 317 303 294 289 287 286 284 281 278 277 270 256 255 242 245 249 262 266 269 260 254 242 179 172 166 164 158 157
317 323 324 326 329 329 328 328 330 329 328 332 331 330 329 321 307 300 294 289 286 284 284 278 274 271 263 253 248 248 247 252 258 262 258 242 208 175 171 165 164 166 167
322 327 329 329 330 331 331 332 332 331 332 333 335 337 333 326 311 305 301 297 293 292 289 287 273 268 259 254 252 252 252 254 255 261 257 254 256 180 183 181 181 178 171
328 330 331 329 332 333 334 335 335 335 335 338 339 339 341 334 322 314 307 299 296 298 294 286 283 269 262 253 252 254 252 257 258 264 258 259 239 183 184 172 168 166 169
331 335 334 333 335 336 337 336 339 338 338 339 340 344 343 334 325 317 313 312 300 296 300 296 283 269 258 249 248 253 257 256 258 269 284 222 206 184 177 181 178 171 172
335 336 335 335 337 336 337 340 343 343 341 344 344 343 338 331 329 324 315 311 307 299 302 305 292 274 254 246 241 245 242 250 259 275 287 209 185 180 177 180 183 179 175
333 336 336 336 338 340 341 342 348 346 347 347 344 338 337 333 332 324 323 315 310 300 295 285 297 281 258 248 248 253 244 249 259 274 273 198 178 177 178 180 187 189 195
337 335 335 340 345 344 346 347 351 351 353 349 338 338 336 336 331 332 329 321 311 303 291 284 276 275 270 252 244 246 236 240 254 264 252 193 181 180 179 187 193 191 190
339 337 338 344 347 350 352 353 357 355 356 344 339 338 339 334 335 336 332 329 322 308 301 289 270 263 257 244 235 233 221 234 250 258 237 192 184 180 178 178 178 182 180
336 337 343 348 348 353 3 359 1 2 351 342 342 338 340 335 337 334 334 333 332 320 303 281 273 262 257 243 241 245 241 242 253 249 217 187 180 180 181 185 183 181 182
337 340 348 352 352 354 355 7 12 7 8 358 351 347 347 340 341 344 344 347 351 351 19 12 304 284 269 258 245 250 244 243 240 221 206 188 187 186 184 185 187 186 183
342 346 350 354 353 358 359 359 359 12 15 16 12 0 359 352 354 356 357 6 13 19 32 21 10 358 352 240 241 253 260 259 244 219 206 193 193 189 186 184 185 182 181
342 348 353 356 356 0 3 5 5 5 6 11 20 20 11 14 7 8 12 27 32 34 30 20 11 4 355 328 285 256 249 268 250 222 208 196 195 192 189 189 188 185 184
345 350 355 360 0 1 5 8 10 12 12 12 12 21 22 19 29 32 36 36 29 26 26 21 17 11 2 344 320 287 249 246 244 219 207 198 195 195 193 193 191 189 188
338 344 0 6 5 3 8 12 15 17 17 18 18 22 14 19 25 29 34 37 34 31 27 23 16 18 14 4 346 319 266 236 233 218 207 205 201 197 197 197 195 192 193
335 359 10 11 7 12 13 16 21 20 21 23 23 26 17 26 29 29 29 34 36 33 30 27 15 20 21 18 6 352 308 240 215 209 212 209 208 207 207 210 205 203 197
140 34 27 15 19 20 19 21 23 24 23 22 24 27 29 30 31 31 30 30 35 38 38 32 29 20 24 24 18 11 358 287 214 200 204 210 209 208 207 206 206 208 204
145 81 45 30 30 28 26 27 26 27 27 25 23 25 27 30 30 31 30 30 30 33 37 37 33 26 27 31 30 20 11 357 277 206 202 203 210 211 214 215 215 207 205
153 115 78 53 39 37 35 35 31 28 29 27 26 26 27 27 29 29 29 29 30 30 33 35 33 31 26 28 32 31 20 12 349 230 210 205 207 209 211 211 213 216 213
165 143 103 71 49 44 44 41 35 31 28 28 27 26 27 28 29 29 29 29 30 31 31 33 31 31 28 26 31 36 30 29 34 64 161 193 201 203 206 209 210 211 209
174 152 122 87 63 48 46 43 39 34 29 27 27 25 25 26 27 28 28 29 29 31 31 31 31 32 30 22 29 34 40 36 40 50 73 134 169 189 201 207 211 213 214
Wind_Speed_850mb
43 46 51 58 62 66 71 75 79 81 82 86 90 94 99 103 99 94 90 89 82 79 79 76 86 93 90 57 70 76 66 76 83 87 96 117 78 99 115 104 106 102 81
43 47 54 59 64 67 71 77 80 84 83 85 90 97 101 102 94 89 87 79 78 77 76 76 82 73 92 66 66 73 66 78 78 77 78 104 104 125 129 138 130 113 106
43 50 55 58 63 66 71 76 79 83 86 89 91 95 100 98 90 83 78 77 75 77 79 77 76 73 86 72 56 74 68 70 75 80 95 111 87 126 132 126 133 137 140
43 49 53 59 64 68 72 76 79 81 88 92 93 95 94 92 79 72 68 70 71 72 69 75 72 72 83 85 50 56 63 66 88 66 91 93 88 117 127 127 122 147 145
42 46 52 59 64 69 74 76 80 83 87 91 94 94 94 89 81 67 68 70 74 80 81 75 71 69 78 88 77 55 59 65 70 74 85 88 108 125 120 137 134 138 139
41 49 54 59 64 67 72 78 80 83 86 90 94 94 91 82 68 67 66 73 75 78 83 84 79 77 76 77 88 83 67 67 70 69 90 91 96 134 112 133 120 116 110
42 49 56 62 66 69 72 77 80 84 88 91 91 89 88 82 68 65 65 69 74 80 81 83 84 78 77 76 87 83 87 72 76 81 87 88 78 131 135 132 122 130 121
42 49 56 64 67 70 73 75 78 82 87 89 90 87 82 76 65 65 66 66 71 73 84 83 86 85 81 71 74 77 87 92 93 82 82 107 86 141 155 164 157 145 120
42 50 56 63 66 68 71 74 76 83 88 90 87 86 84 78 67 65 65 68 57 74 71 86 77 81 79 68 65 84 90 96 81 83 88 107 109 140 164 147 131 134 113
41 49 56 61 64 66 68 71 72 77 86 89 92 88 91 86 73 67 60 65 71 66 63 80 75 68 67 60 61 69 87 91 90 86 69 84 109 153 157 173 163 145 132
39 45 50 56 59 62 65 66 71 77 83 89 92 89 87 81 80 64 66 65 64 65 69 73 64 53 54 63 67 74 92 88 88 80 63 92 128 147 151 162 179 166 143
36 40 43 47 52 56 60 64 65 73 81 90 89 91 88 87 69 77 63 60 58 66 74 58 53 51 47 49 54 58 77 77 81 73 55 82 119 123 150 153 168 166 167
29 34 39 42 48 51 56 62 66 70 76 85 85 85 96 83 96 76 75 70 68 64 63 56 55 48 53 52 47 48 48 55 65 65 44 82 125 122 131 148 155 163 145
26 30 36 42 44 47 51 58 61 65 72 76 85 85 96 92 94 90 90 89 82 63 52 52 43 45 43 46 41 44 50 54 58 52 45 88 117 117 116 132 127 133 122
24 29 33 39 44 45 44 53 57 53 51 60 69 77 84 96 93 86 85 83 65 61 68 52 43 33 38 44 45 44 50 64 58 52 52 85 111 118 121 135 126 121 117
20 27 32 37 42 47 52 44 43 51 52 47 52 61 73 75 78 78 79 61 54 55 25 14 12 27 33 29 37 49 56 56 55 47 63 97 111 113 114 120 125 125 112
21 26 30 34 38 43 48 55 64 49 54 61 62 64 70 72 73 75 75 56 56 45 48 42 30 23 8 13 30 44 37 43 46 43 70 96 106 112 116 117 115 116 106
19 24 27 31 35 39 45 51 55 63 71 71 68 77 79 78 72 73 75 66 71 72 67 69 55 43 32 24 22 26 28 42 40 51 78 95 102 112 111 113 116 116 101
14 18 21 25 31 36 40 45 51 55 61 68 72 72 87 83 87 87 89 96 94 92 86 85 72 58 45 37 29 25 30 38 40 65 83 97 104 111 114 116 117 115 111
8 12 17 21 26 30 38 43 49 53 57 64 70 75 84 86 97 101 99 98 99 97 96 94 91 73 60 54 40 26 27 37 44 75 88 101 105 110 116 114 114 120 117
4 9 14 19 23 30 36 41 47 51 54 57 62 64 60 76 87 94 96 97 98 100 99 92 93 92 77 69 53 31 19 25 40 68 88 98 103 105 103 104 113 117 117
1 4 10 15 21 26 32 38 42 46 50 53 55 58 61 68 76 83 89 92 94 96 99 102 98 102 92 83 78 53 28 11 23 58 68 83 104 103 108 107 109 110 114
4 5 9 13 19 24 28 34 39 44 47 49 53 56 61 65 68 73 79 85 90 93 97 104 110 109 102 91 88 78 53 25 9 32 58 72 86 97 106 104 104 102 108
8 6 7 11 15 19 24 32 37 41 44 46 49 51 54 58 62 65 69 75 81 87 92 96 101 111 112 100 92 90 71 40 12 10 35 60 71 86 94 97 101 105 106
13 9 7 10 12 17 25 29 33 37 42 45 47 48 49 50 54 58 62 67 73 80 86 92 91 101 112 99 95 93 83 62 32 9 14 33 49 60 72 84 90 94 95
13 11 9 10 12 16 22 26 30 34 38 42 44 46 47 48 49 53 55 61 67 71 76 83 87 89 105 106 93 89 91 83 66 44 23 17 29 41 52 61 67 74 82
Wind_Direction_850mb
300 309 313 314 316 316 318 319 319 319 320 319 317 315 313 310 308 302 294 292 286 283 280 275 262 251 251 269 250 254 257 250 248 260 261 250 278 200 198 194 181 172 175
301 308 311 314 317 321 322 323 323 322 322 321 319 315 312 308 307 301 295 290 284 283 281 274 264 256 250 257 255 253 252 253 254 253 254 253 257 206 199 188 184 198 194
301 307 312 317 320 321 324 323 323 323 323 320 318 316 314 311 307 300 292 290 285 283 281 277 269 256 252 250 255 256 255 252 255 253 253 254 268 198 199 193 187 188 193
298 308 315 318 321 323 322 324 326 326 323 321 319 318 315 312 303 296 288 285 284 284 285 277 270 258 250 246 248 260 258 257 255 257 250 253 256 191 190 174 171 173 172
301 310 314 320 323 324 325 326 325 326 324 322 321 321 320 318 310 301 296 293 292 291 290 287 270 257 259 247 247 248 263 262 257 256 255 251 256 183 179 174 173 171 172
309 316 322 322 324 327 327 326 326 326 325 324 327 327 323 317 303 294 289 287 286 284 281 278 277 270 256 255 242 245 249 262 266 269 260 254 242 179 172 166 164 158 157
317 323 324 326 329 329 328 328 330 329 328 332 331 330 329 321 307 300 294 289 286 284 284 278 274 271 263 253 248 248 247 252 258 262 258 242 208 175 171 165 164 166 167
322 327 329 329 330 331 331 332 332 331 332 333 335 337 333 326 311 305 301 297 293 292 289 287 273 268 259 254 252 252 252 254 255 261 257 254 256 180 183 181 181 178 171
328 330 331 329 332 333 334 335 335 335 335 338 339 339 341 334 322 314 307 299 296 298 294 286 283 269 262 253 252 254 252 257 258 264 258 259 239 183 184 172 168 166 169
331 335 334 333 335 336 337 336 339 338 338 339 340 344 343 334 325 317 313 312 300 296 300 296 283 269 258 249 248 253 257 256 258 269 284 222 206 184 177 181 178 171 172
335 336 335 335 337 336 337 340 343 343 341 344 344 343 338 331 329 324 315 311 307 299 302 305 292 274 254 246 241 245 242 250 259 275 287 209 185 180 177 180 183 179 175
333 336 336 336 338 340 341 342 348 346 347 347 344 338 337 333 332 324 323 315 310 300 295 285 297 281 258 248 248 253 244 249 259 274 273 198 178 177 178 180 187 189 195
337 335 335 340 345 344 346 347 351 351 353 349 338 338 336 336 331 332 329 321 311 303 291 284 276 275 270 252 244 246 236 240 254 264 252 193 181 180 179 187 193 191 190
339 337 338 344 347 350 352 353 357 355 356 344 339 338 339 334 335 336 332 329 322 308 301 289 270 263 257 244 235 233 221 234 250 258 237 192 184 180 178 178 178 182 180
336 337 343 348 348 353 3 359 1 2 351 342 342 338 340 335 337 334 334 333 332 320 303 281 273 262 257 243 241 245 241 242 253 249 217 187 180 180 181 185 183 181 182
337 340 348 352 352 354 355 7 12 7 8 358 351 347 347 340 341 344 344 347 351 351 19 12 304 284 269 258 245 250 244 243 240 221 206 188 187 186 184 185 187 186 183
342 346 350 354 353 358 359 359 359 12 15 16 12 0 359 352 354 356 357 6 13 19 32 21 10 358 352 240 241 253 260 259 244 219 206 193 193 189 186 184 185 182 181
342 348 353 356 356 0 3 5 5 5 6 11 20 20 11 14 7 8 12 27 32 34 30 20 11 4 355 328 285 256 249 268 250 222 208 196 195 192 189 189 188 185 184
345 350 355 360 0 1 5 8 10 12 12 12 12 21 22 19 29 32 36 36 29 26 26 21 17 11 2 344 320 287 249 246 244 219 207 198 195 195 193 193 191 189 188
338 344 0 6 5 3 8 12 15 17 17 18 18 22 14 19 25 29 34 37 34 31 27 23 16 18 14 4 346 319 266 236 233 218 207 205 201 197 197 197 195 192 193
335 359 10 11 7 12 13 16 21 20 21 23 23 26 17 26 29 29 29 34 36 33 30 27 15 20 21 18 6 352 308 240 215 209 212 209 208 207 207 210 205 203 197
140 34 27 15 19 20 19 21 23 24 23 22 24 27 29 30 31 31 30 30 35 38 38 32 29 20 24 24 18 11 358 287 214 200 204 210 209 208 207 206 206 208 204
145 81 45 30 30 28 26 27 26 27 27 25 23 25 27 30 30 31 30 30 30 33 37 37 33 26 27 31 30 20 11 357 277 206 202 203 210 211 214 215 215 207 205
153 115 78 53 39 37 35 35 31 28 29 27 26 26 27 27 29 29 29 29 30 30 33 35 33 31 26 28 32 31 20 12 349 230 210 205 207 209 211 211 213 216 213
165 143 103 71 49 44 44 41 35 31 28 28 27 26 27 28 29 29 29 29 30 31 31 33 31 31 28 26 31 36 30 29 34 64 161 193 201 203 206 209 210 211 209
174 152 122 87 63 48 46 43 39 34 29 27 27 25 25 26 27 28 28 29 29 31 31 31 31 32 30 22 29 34 40 36 40 50 73 134 169 189 201 207 211 213 214